STARLINK-4716, 53706

Orbit data source: Space-Track

STARLINK-4716, 53706 is a payload satellite owned by SpaceX/Seattle (US) in LEO that was launched on Mon, 05 Sep 2022 UTC via an FALCON 9 launch vehicle from the Air Force Eastern Test Range (AFETR). Payload-class satellites include a variety of spacecraft equipped with specific instruments for various scientific and technological missions. These include communications satellites like Starlink; space stations such as the ISS; scientific satellites like the Hubble; Earth observation satellites from companies like Planet Labs, Umbra, and HawkEye 360; GPS; miniature CubeSats for education and research; and military/defense satellites.

Loading next visibility...
Identifier
53706, 2022-107G
Orbit
LEO
Country
Flag of USUS
Related business
Manufacturer
SpaceX/Seattle
Mission
Operational Commercial Communications
Bus & Motor
STARLINK, Unknown motor
Mass
305 kg wet, ~290 kg dry
Launch date (UTC)
2022-09-05 (4 years ago)
Launch vehicle
FALCON 9
Launch site
Air Force Eastern Test Range (AFETR)
Object type
Payload
Rocket body
Debris
Shape & HBR
Box + 1 Pan, 10.1 m
Radar Cross Section
13.562 m², Large (>1 m²)

Expand to show TLE details & history
Last TLE update: 2 days ago

TLE from 2 days ago
0 STARLINK-4716
1 53706U 22107G   26171.29986566  .00000095  00000-0  24037-4 0  9995
2 53706  53.1598 143.4330 0001313  86.1766 273.9375 15.08833081210347
Epoch: 2026-06-20T07:11Z
TLE epoch observation values (Epoch: 2026-06-20T07:11:48.393Z)
Latitude
-0.00004°
Longitude
126.96486°
Altitude
540.594 km
Speed
7.593 km/s
True Right ascension
09h 33m 43s
True Declination
0° 00' 00"
Sunlit
Object was in daylight at epoch
Visualization orbit readout
Latitude
Unknown
Longitude
Unknown
Altitude
Unknown
Speed
Unknown
Apparent Right ascension
Unknown
Apparent Declination
Unknown
Sunlit
N/A
Visualization observer readout
Local Sidereal Time
23:08:40
Azimuth
Unknown
Elevation
Unknown
Doppler factor
Unknown
Orbital elements
Apogee altitude
540.927 km
Perigee altitude
539.11 km
Semi-major axis
6,918.156 km
Eccentricity
0.00013
Inclination
53.1598°
RAAN
143.433°
Arg. of periapsis
86.1766°
True anomaly
273.92249°
Mean anomaly
273.9375°
Eccentric anomaly
273.92999°
Mean motion
3.77188 °/min
Orbital period
95.44 mins
BSTAR
0.000024037
Loading maneuver chart data...
Computing Atmospheric mass density...

Documentation

Showing up to 5 results
|